TimeICT,TemperatureF,Dew PointF,Humidity,Sea Level PressureIn,VisibilityMPH,Wind Direction,Wind SpeedMPH,Gust SpeedMPH,PrecipitationIn,Events,Conditions,WindDirDegrees,DateUTC
12:00 AM,82.4,75.2,79,29.86,5.0,WSW,5.8,-,N/A,,Mostly Cloudy,250,2013-06-27 17:00:00
12:30 AM,82.4,75.2,79,29.86,5.0,Variable,5.8,-,N/A,,Mostly Cloudy,0,2013-06-27 17:30:00
1:00 AM,83,78,81,29.82,6,Calm,Calm,,,,Scattered Clouds,,2013-06-27 18:00:00
1:00 AM,82.4,75.2,79,29.86,5.0,Variable,2.3,-,N/A,,Mostly Cloudy,0,2013-06-27 18:00:00
1:30 AM,82.4,75.2,79,29.86,5.0,WSW,5.8,-,N/A,,Mostly Cloudy,250,2013-06-27 18:30:00
2:00 AM,82.4,75.2,79,29.83,5.0,Variable,5.8,-,N/A,,Mostly Cloudy,0,2013-06-27 19:00:00
2:30 AM,82.4,75.2,79,29.83,5.0,West,9.2,-,N/A,,Mostly Cloudy,260,2013-06-27 19:30:00
3:00 AM,82.4,75.2,79,29.83,5.0,West,8.1,-,N/A,,Mostly Cloudy,260,2013-06-27 20:00:00
3:30 AM,82.4,75.2,79,29.83,5.0,West,8.1,-,N/A,,Mostly Cloudy,260,2013-06-27 20:30:00
4:00 AM,80.6,75.2,84,29.83,5.0,Variable,3.5,-,N/A,,Mostly Cloudy,0,2013-06-27 21:00:00
4:30 AM,80.6,75.2,84,29.83,5.0,Calm,Calm,-,N/A,,Mostly Cloudy,0,2013-06-27 21:30:00
5:00 AM,80.6,75.2,84,29.83,5.0,West,3.5,-,N/A,,Mostly Cloudy,280,2013-06-27 22:00:00
5:30 AM,80.6,75.2,84,29.83,5.0,West,5.8,-,N/A,,Mostly Cloudy,260,2013-06-27 22:30:00
6:00 AM,80.6,75.2,84,29.83,5.0,West,3.5,-,N/A,,Mostly Cloudy,260,2013-06-27 23:00:00
6:30 AM,80.6,75.2,84,29.83,5.0,WSW,4.6,-,N/A,,Mostly Cloudy,240,2013-06-27 23:30:00
7:00 AM,82,77,81,29.81,6,West,3.5,,,,Scattered Clouds,260,2013-06-28 00:00:00
7:00 AM,82.4,75.2,79,29.86,5.0,Variable,3.5,-,N/A,,Mostly Cloudy,0,2013-06-28 00:00:00
7:30 AM,84.2,75.2,74,29.86,5.0,West,10.4,-,N/A,,Scattered Clouds,280,2013-06-28 00:30:00
8:00 AM,84.2,75.2,74,29.86,5.6,WSW,9.2,-,N/A,,Scattered Clouds,250,2013-06-28 01:00:00
8:30 AM,86.0,75.2,70,29.86,5.6,West,13.8,-,N/A,,Mostly Cloudy,270,2013-06-28 01:30:00
9:00 AM,86.0,75.2,70,29.86,5.6,West,12.7,-,N/A,,Mostly Cloudy,260,2013-06-28 02:00:00
9:30 AM,86.0,75.2,70,29.89,5.6,West,13.8,-,N/A,,Mostly Cloudy,260,2013-06-28 02:30:00
10:00 AM,86.0,75.2,70,29.86,5.6,West,12.7,-,N/A,,Mostly Cloudy,280,2013-06-28 03:00:00
10:30 AM,86.0,75.2,70,29.86,5.6,West,13.8,-,N/A,,Mostly Cloudy,270,2013-06-28 03:30:00
11:00 AM,86.0,75.2,70,29.89,5.6,West,12.7,-,N/A,,Mostly Cloudy,260,2013-06-28 04:00:00
11:30 AM,86.0,75.2,70,29.86,5.6,WSW,12.7,-,N/A,,Mostly Cloudy,250,2013-06-28 04:30:00
12:00 PM,86.0,75.2,70,29.86,5.6,West,13.8,-,N/A,,Mostly Cloudy,260,2013-06-28 05:00:00
12:30 PM,86.0,75.2,70,29.86,5.6,West,13.8,-,N/A,,Mostly Cloudy,270,2013-06-28 05:30:00
1:00 PM,88,78,64,29.82,6,West,3.5,,,,Scattered Clouds,270,2013-06-28 06:00:00
1:00 PM,87.8,75.2,66,29.86,5.6,West,12.7,-,N/A,,Mostly Cloudy,260,2013-06-28 06:00:00
1:30 PM,87.8,75.2,66,29.83,5.6,West,13.8,-,N/A,,Mostly Cloudy,260,2013-06-28 06:30:00
2:00 PM,87.8,75.2,66,29.83,5.6,West,15.0,-,N/A,,Mostly Cloudy,260,2013-06-28 07:00:00
2:30 PM,87.8,75.2,66,29.83,5.6,West,13.8,-,N/A,,Mostly Cloudy,280,2013-06-28 07:30:00
3:00 PM,87.8,75.2,66,29.83,5.6,West,13.8,-,N/A,,Mostly Cloudy,280,2013-06-28 08:00:00
3:30 PM,87.8,75.2,66,29.80,5.6,West,12.7,-,N/A,,Mostly Cloudy,280,2013-06-28 08:30:00
4:00 PM,86.0,73.4,66,29.80,5.6,West,12.7,-,N/A,,Mostly Cloudy,280,2013-06-28 09:00:00
4:30 PM,86.0,75.2,70,29.80,5.6,West,12.7,-,N/A,,Mostly Cloudy,270,2013-06-28 09:30:00
5:00 PM,86.0,73.4,66,29.80,5.6,West,15.0,-,N/A,,Mostly Cloudy,260,2013-06-28 10:00:00
5:30 PM,86.0,73.4,66,29.80,5.6,West,12.7,-,N/A,,Mostly Cloudy,270,2013-06-28 10:30:00
6:00 PM,84.2,73.4,70,29.80,5.6,West,11.5,-,N/A,,Mostly Cloudy,280,2013-06-28 11:00:00
6:30 PM,84.2,75.2,74,29.80,5.6,WNW,10.4,-,N/A,,Mostly Cloudy,300,2013-06-28 11:30:00
7:00 PM,85,76,68,29.76,6,West,3.5,,,,Scattered Clouds,270,2013-06-28 12:00:00
7:00 PM,84.2,75.2,74,29.80,5.6,West,9.2,-,N/A,,Mostly Cloudy,280,2013-06-28 12:00:00
7:30 PM,82.4,75.2,79,29.80,5.6,WNW,6.9,-,N/A,,Mostly Cloudy,290,2013-06-28 12:30:00
8:00 PM,82.4,75.2,79,29.83,5.6,West,6.9,-,N/A,,Mostly Cloudy,280,2013-06-28 13:00:00
8:30 PM,82.4,73.4,74,29.83,5.6,West,6.9,-,N/A,,Mostly Cloudy,260,2013-06-28 13:30:00
9:00 PM,82.4,73.4,74,29.86,5.6,WSW,5.8,-,N/A,,Mostly Cloudy,240,2013-06-28 14:00:00
9:30 PM,82.4,75.2,79,29.86,5.6,West,8.1,-,N/A,,Mostly Cloudy,270,2013-06-28 14:30:00
10:00 PM,82.4,75.2,79,29.86,5.6,Variable,2.3,-,N/A,,Mostly Cloudy,0,2013-06-28 15:00:00
10:30 PM,82.4,73.4,74,29.86,5.6,Variable,5.8,-,N/A,,Mostly Cloudy,0,2013-06-28 15:30:00
11:00 PM,82.4,73.4,74,29.86,5.6,Variable,3.5,-,N/A,,Mostly Cloudy,0,2013-06-28 16:00:00
11:30 PM,80.6,75.2,84,29.86,5.6,Variable,2.3,-,N/A,,Mostly Cloudy,0,2013-06-28 16:30:00